Regional Weather Roundup
Issued by NWS Charleston, WV

Home | Current Version | Previous Version | Graphics & Text | Print | Product List | Glossary On
Versions: 1 2 3 4 5 6 7 8 9 10 11 12 13 14 15 16 17 18 19 20 21 22 23 24 25 26 27 28 29 30 31 32 33 34 35 36 37 38 39 40 41 42 43 44 45 46 47 48 49 50
774
ASUS41 KRLX 072010
RWRRLX
West Virginia Regional Weather Roundup
National Weather Service Charleston WV
300 PM EST WED DEC 07 2016

Note: "fair" indicates few or no clouds below 12,000 feet with no
significant weather and/or obstructions to visibility.

WVZ003-072100-
Northern Panhandle of West Virginia

CITY           SKY/WX    TMP DP  RH WIND       PRES   REMARKS
WHEELING       MOSUNNY   39  21  48 W13       30.06S
$$

WVZ009-072100-
Northwest West Virginia

CITY           SKY/WX    TMP DP  RH WIND       PRES   REMARKS
PARKERSBURG    MOSUNNY   44  22  41 W6        30.12F
$$

WVZ006-072100-
Western West Virginia

CITY           SKY/WX    TMP DP  RH WIND       PRES   REMARKS
HUNTINGTON     MOSUNNY   48  21  34 N3        30.09F
$$

WVZ015-072100-
West Central West Virginia

CITY           SKY/WX    TMP DP  RH WIND       PRES   REMARKS
CHARLESTON     MOSUNNY   45  27  49 S3        30.10S
$$

WVZ022-031-072100-
North Central West Virginia

CITY           SKY/WX    TMP DP  RH WIND       PRES   REMARKS
CLARKSBURG     SUNNY     44  24  45 W7        30.07S
MORGANTOWN     SUNNY     43  21  41 SW8       30.07R
$$

WVZ025-035-042-045-072100-
Southern West Virginia

CITY           SKY/WX    TMP DP  RH WIND       PRES   REMARKS
BECKLEY        SUNNY     44  23  43 NW7       30.04F
LOGAN            N/A     45  27  49 CALM      30.07S
BLUEFIELD      SUNNY     41  29  62 CALM      30.03F
LEWISBURG      SUNNY     44  23  42 NW3       30.03F
$$

WVZ047-072100-
Northern Mountains of West Virginia

CITY           SKY/WX    TMP DP  RH WIND       PRES   REMARKS
ELKINS         SUNNY     43  20  39 W9        30.06R
$$

WVZ052-072100-
Eastern Panhandle of West Virginia

CITY           SKY/WX    TMP DP  RH WIND       PRES   REMARKS
MARTINSBURG    SUNNY     49  25  39 NW9       30.02S
PETERSBURG     SUNNY     52  22  31 W9        30.04R
$$




USA.gov is the U.S. government's official web portal to all federal, state and local government web resources and services.